Aswan, Egypt

10:29 PM EET on June 26, 2017 (GMT +0200)
Aswan

Weather History for HESN - June, 2013

Change the Weather History Date:

Tuesday, June 4, 2013

  Actual Average Record
Temperature  
Mean Temperature 102 °F -  
Max Temperature 115 °F 103 °F 115 °F (2013)
Min Temperature 88 °F 79 °F 73 °F (2004)
Cooling Degree Days 36    
Growing Degree Days 52 (Base 50)    
Moisture  
Dew Point 45 °F    
Average Humidity 14    
Maximum Humidity 24    
Minimum Humidity 5    
Precipitation  
Precipitation 0.00 in 0.00 in - ()
Sea Level Pressure  
Sea Level Pressure 29.75 in    
Wind  
Wind Speed 10 mph ()    
Max Wind Speed 15 mph    
Max Gust Speed -    
Visibility 6.0 miles    
Events      
Averages and records for this station are not official NWS values.
T = Trace of Precipitation, MM = Missing Value Source: Averaged Metar Reports

Daily Weather History Graph

Daily Weather History Graph

Search for Another Location

Airport or City:

Trip Planner

Search our weather history database for the weather conditions in past years. The results will help you decide how hot, cold, wet, or windy it might be!

Date:

Astronomy

Jun. 04, 2013 Rise Set
Actual Time 5:00 AM EET 6:33 PM EET
Civil Twilight 4:35 AM EET 6:59 PM EET
Nautical Twilight 4:05 AM EET 7:29 PM EET
Astronomical Twilight 3:33 AM EET 8:00 PM EET
Moon 1:57 AM EET (6/4) 3:02 PM EET (6/4)
Length of Visible Light 14h 23m
Length of Day
13h 32m
Waning Crescent, 16% of the Moon is Illuminated
Jun 4
Waning Crescent
Jun 8
New
Jun 16
First Quarter
Jun 23
Full
Jun 30
Last Quarter

Hourly Weather History & Observations

Time (EET) Temp. Dew Point Humidity Pressure Visibility Wind Dir Wind Speed Gust Speed Precip Events Conditions
12:00 AM 96.8 °F 44.6 °F 17% 29.74 in - North 13.8 mph - N/A   Clear
1:00 AM 95.0 °F 46.4 °F 19% 29.74 in - North 9.2 mph - N/A   Clear
2:00 AM 94 °F 46 °F 11% 29.70 in 6 mi NNE 10.4 mph - -  
2:00 AM 93.2 °F 46.4 °F 20% 29.74 in - NNE 10.4 mph - N/A   Clear
3:00 AM 91.4 °F 46.4 °F 21% 29.74 in - NNE 9.2 mph - N/A   Clear
4:00 AM 89.6 °F 44.6 °F 21% 29.74 in - North 8.1 mph - N/A   Clear
5:00 AM 87.8 °F 46.4 °F 24% 29.77 in - North 11.5 mph - N/A   Clear
6:00 AM 89.6 °F 48.2 °F 24% 29.77 in - North 11.5 mph - N/A   Clear
7:00 AM 91.4 °F 48.2 °F 23% 29.80 in - North 12.7 mph - N/A   Clear
8:00 AM 96 °F 45 °F 10% 29.77 in 6 mi North 11.5 mph - -  
8:00 AM 96.8 °F 44.6 °F 17% 29.80 in - North 11.5 mph - N/A   Clear
9:00 AM 98.6 °F 46.4 °F 17% 29.80 in - North 12.7 mph - N/A   Clear
10:00 AM 102.2 °F 46.4 °F 15% 29.80 in - North 10.4 mph - N/A   Clear
11:00 AM 107.6 °F 44.6 °F 12% 29.80 in - North 9.2 mph - N/A   Clear
12:00 PM 111.2 °F 46.4 °F 12% 29.77 in - NNE 9.2 mph - N/A   Clear
1:00 PM 113.0 °F 46.4 °F 11% 29.77 in - North 11.5 mph - N/A   Clear
2:00 PM 115 °F 46 °F 5% 29.68 in 6 mi NNE 12.7 mph - -  
2:00 PM 114.8 °F 46.4 °F 10% 29.74 in - NNE 12.7 mph - N/A   Clear
3:00 PM 114.8 °F 46.4 °F 10% 29.71 in - NNE 12.7 mph - N/A   Clear
4:00 PM 113.0 °F 46.4 °F 11% 29.71 in - NNE 12.7 mph - N/A   Clear
5:00 PM 113.0 °F 42.8 °F 10% 29.68 in - North 12.7 mph - N/A   Clear
6:00 PM 113.0 °F 42.8 °F 10% 29.71 in - North 11.5 mph - N/A   Clear
7:00 PM 109.4 °F 44.6 °F 11% 29.74 in - North 11.5 mph - N/A   Clear
8:00 PM 105 °F 42 °F 6% 29.70 in 6 mi North 12.7 mph - -  
8:00 PM 105.8 °F 42.8 °F 12% 29.74 in - North 12.7 mph - N/A   Clear
9:00 PM 102.2 °F 42.8 °F 13% 29.77 in - North 13.8 mph - N/A   Clear
10:00 PM 98.6 °F 42.8 °F 15% 29.80 in - North 15.0 mph - N/A   Clear
11:00 PM 96.8 °F 41.0 °F 15% 29.83 in - North 13.8 mph - N/A   Clear